sat.trackr.live / text

‹ back to catalog

STARLINK-31259

NORAD 59076 · 2024-041C

PAYLOAD ACTIVE UNKNOWN

§ Identity

Operator
Country
US
Launch date
2024-02-29
Launch site
AFETR
Launch vehicle
Mass (kg)
RCS (m²)

Purposes: comms

External: N2YO · Heavens-Above · Gunter

§ Orbital elements

Epoch: 2026-05-24T23:33:58.333824Z

Period
94.27 min
Inclination
42.9996°
Eccentricity
0.0000289
Mean motion
15.27563664 rev/d
Perigee alt
482.9 km
Apogee alt
483.3 km
Semi-major
6,861.2 km
B*
-4.1648e-5
RAAN
239.4888°
Arg perigee
100.3368°
Mean anomaly
259.7516°
Rev number
12,489

§ Raw data

STARLINK-312591 59076U 24041C   26144.98192516 -.00001407  00000+0 -41648-4 0  99962 59076  42.9996 239.4888 0000289 100.3368 259.7516 15.27563664124894

JSON: /api/v1/satellites/59076 · /tle

For live sub-satellite position, see the globe view (requires WebGL).

§ Visibility from observer

Set your observer location to see the next 7 days of passes ≥ 10°. The values pass through the URL so the page stays shareable.

No JS? Fill the form by hand. The geolocation button needs JavaScript.